Вернуться в каталог

STARLINK-34084

АктивенСвязьVLEO
NORAD 63970·PAYLOAD·🇺🇸 United States

Запущен May 13, 2025 с Cape Canaveral Space Force Station

Loading…

Ближайшие Пролёты (ближайшие 24 часа)

TLE

СвежийSource: CelesTrak SupGP

Эпоха: Sep 14, 2026, 20:56 UTC

1 63970C 25099U   26257.87270833  .00001163  00000+0  42128-4 0  2578
2 63970  43.0028 187.3869 0001409 262.5091 120.7487 15.27580592    19

Отслеживайте STARLINK-34084 в реальном времени с AllMySat

Download on the App Store